N3EYQ Weather Reports


Display with metric or nautical units.
time (UTC)temp
F
wind
direction
speed
MPH
gust
MPH
rain 1hr
in
rain 24hr
in
rain mn
in
humidity
%
barometer
mb
20260509080209 44 0 0.0 0.0 0.00 0.00 0.00 83 1013.3
20260509075208 44 0 0.0 0.0 0.00 0.00 0.00 83 1013.7
20260509074208 44 0 0.0 0.0 0.00 0.00 0.00 84 1013.7
20260509073228 44 0 0.0 0.0 0.00 0.00 0.00 81 1013.7
20260509072208 44 0 0.0 0.0 0.00 0.00 0.00 79 1013.7
20260509071207 44 0 0.0 0.0 0.00 0.00 0.00 78 1013.3
20260509070207 43 0 0.0 0.0 0.00 0.00 0.00 78 1013.0
20260509065207 43 0 0.0 0.0 0.00 0.00 0.00 77 1013.0
20260509064227 43 0 0.0 0.0 0.00 0.00 0.00 77 1013.0
20260509063207 43 0 0.0 0.0 0.00 0.00 0.00 77 1013.0
20260509062207 42 0 0.0 0.0 0.00 0.00 0.00 77 1013.3
20260509061207 42 0 0.0 0.0 0.00 0.00 0.00 77 1013.3
20260509060207 42 0 0.0 0.0 0.00 0.00 0.00 78 1013.3
20260509055206 42 0 0.0 0.0 0.00 0.00 0.00 77 1013.7
20260509054206 42 0 0.0 0.0 0.00 0.00 0.00 77 1013.7
20260509053206 41 0 0.0 0.0 0.00 0.00 0.00 77 1013.7
20260509052206 41 0 0.0 0.0 0.00 0.00 0.00 77 1013.7
20260509051206 41 0 0.0 0.0 0.00 0.00 0.00 77 1013.7
20260509050206 41 0 0.0 0.0 0.00 0.00 0.00 76 1013.7
20260509045206 41 0 0.0 0.0 0.00 0.00 0.00 75 1013.7
20260509044206 41 0 0.0 0.0 0.00 0.00 0.00 75 1013.7
20260509043206 41 0 0.0 0.0 0.00 0.00 0.00 74 1014.0
20260509042205 41 0 0.0 0.0 0.00 0.00 0.00 74 1013.7
20260509041226 41 0 0.0 0.0 0.00 0.00 0.00 73 1013.7
20260509040205 41 0 0.0 0.0 0.00 0.00 0.00 73 1013.7
20260509035205 41 0 0.0 0.0 0.00 0.00 0.00 72 1013.7
20260509034225 41 0 0.0 0.0 0.00 0.00 0.00 71 1013.7
20260509033205 41 0 0.0 0.0 0.00 0.00 0.00 70 1013.7
20260509032205 42 0 0.0 0.0 0.00 0.00 0.00 70 1013.3
20260509031204 42 0 0.0 0.0 0.00 0.00 0.00 70 1013.7
20260509030204 42 0 0.0 0.0 0.00 0.00 0.00 68 1013.3
20260509025204 42 0 0.0 0.0 0.00 0.00 0.00 68 1013.3
20260509024204 42 0 0.0 0.0 0.00 0.00 0.00 67 1013.7
20260509023224 43 0 0.0 0.0 0.00 0.00 0.00 66 1013.7
20260509022204 43 0 0.0 0.0 0.00 0.00 0.00 65 1013.7
20260509021203 44 0 0.0 0.0 0.00 0.00 0.00 65 1013.3
20260509020203 44 0 0.0 0.0 0.00 0.00 0.00 63 1013.3
20260509015204 44 0 0.0 0.0 0.00 0.00 0.00 63 1013.0
20260509014203 45 0 0.0 0.0 0.00 0.00 0.00 62 1013.0
20260509013203 45 0 0.0 0.0 0.00 0.00 0.00 62 1012.7
20260509012203 46 0 0.0 0.0 0.00 0.00 0.00 58 1012.7
20260509011223 47 0 0.0 0.0 0.00 0.00 0.00 57 1012.7
20260509010203 47 0 0.0 0.0 0.00 0.00 0.00 56 1012.3
20260509005202 48 0 0.0 0.0 0.00 0.00 0.00 55 1012.0
20260509004202 49 0 0.0 0.0 0.00 0.00 0.00 53 1011.6
20260509003202 51 0 0.0 0.0 0.00 0.00 0.00 51 1011.6
20260509002202 52 0 0.0 0.0 0.00 0.00 0.00 49 1011.6
20260509001223 53 0 0.0 0.0 0.00 0.00 0.00 48 1011.6
20260509000204 53 0 0.0 0.0 0.00 0.00 0.00 47 1011.6
20260508235222 54 0 0.0 0.0 0.00 0.00 0.00 46 1011.6
20260508234201 55 0 0.0 0.0 0.00 0.00 0.00 45 1011.3
20260508233201 56 0 0.0 0.0 0.00 0.00 0.00 43 1011.3
20260508232201 57 0 0.0 0.0 0.00 0.00 0.00 40 1011.0
20260508231221 57 0 0.0 0.0 0.00 0.00 0.00 39 1011.3
20260508230201 58 0 0.0 0.0 0.00 0.00 0.00 37 1011.3
20260508225201 58 0 0.0 0.0 0.00 0.00 0.00 37 1011.0
20260508224201 59 0 0.0 0.0 0.00 0.00 0.00 36 1011.0
20260508223200 59 0 0.0 0.0 0.00 0.00 0.00 37 1011.0
20260508222201 59 0 0.0 0.0 0.00 0.00 0.00 36 1011.0
20260508221220 59 0 0.0 0.0 0.00 0.00 0.00 37 1011.0
20260508220200 60 0 0.0 0.0 0.00 0.00 0.00 33 1011.0
20260508215221 61 0 0.0 0.0 0.00 0.00 0.00 34 1011.0
20260508214220 61 0 0.0 0.0 0.00 0.00 0.00 38 1011.0
20260508213200 60 0 0.0 0.0 0.00 0.00 0.00 38 1011.0
20260508212200 61 0 0.0 0.0 0.00 0.00 0.00 38 1011.0
20260508211159 61 0 0.0 0.0 0.00 0.00 0.00 38 1011.0
20260508210219 61 0 0.0 0.0 0.00 0.00 0.00 38 1011.3
20260508205159 61 0 0.0 0.0 0.00 0.00 0.00 38 1011.3
20260508204159 60 0 0.0 0.0 0.00 0.00 0.00 41 1011.0
20260508203200 60 0 0.0 0.0 0.00 0.00 0.00 38 1011.0
20260508202159 60 0 0.0 0.0 0.00 0.00 0.00 43 1011.0
20260508201200 60 0 0.0 0.0 0.00 0.00 0.00 43 1011.3
20260508200159 61 0 0.0 0.0 0.00 0.00 0.00 44 1011.3
20260508195200 59 0 0.0 0.0 0.00 0.00 0.00 44 1011.3
20260508194158 59 0 0.0 0.0 0.00 0.00 0.00 44 1011.3
20260508193158 60 0 0.0 0.0 0.00 0.00 0.00 41 1011.3
20260508192158 60 0 0.0 0.0 0.00 0.00 0.00 44 1011.3
20260508191158 59 0 0.0 0.0 0.00 0.00 0.00 46 1011.3
20260508190158 58 0 0.0 0.0 0.00 0.00 0.00 49 1011.6
20260508185157 58 0 0.0 0.0 0.00 0.00 0.00 47 1011.6
20260508184158 58 0 0.0 0.0 0.00 0.00 0.00 47 1011.6
20260508183158 59 0 0.0 0.0 0.00 0.00 0.00 47 1011.6
20260508182158 59 0 0.0 0.0 0.00 0.00 0.00 48 1011.6
20260508181157 59 0 0.0 0.0 0.00 0.00 0.00 46 1011.6
20260508180157 58 0 0.0 0.0 0.00 0.00 0.00 48 1011.6
20260508175218 57 0 0.0 0.0 0.00 0.00 0.00 50 1012.0
20260508174157 57 0 0.0 0.0 0.00 0.00 0.00 49 1012.0
20260508173217 58 0 0.0 0.0 0.00 0.00 0.00 49 1011.3
20260508172156 59 0 0.0 0.0 0.00 0.00 0.00 48 1011.3
20260508171156 57 0 0.0 0.0 0.00 0.00 0.00 49 1011.6
20260508170156 57 0 0.0 0.0 0.00 0.00 0.00 50 1011.6
20260508165158 56 0 0.0 0.0 0.00 0.00 0.00 50 1011.6
20260508164157 55 0 0.0 0.0 0.00 0.00 0.00 51 1012.0
20260508163156 54 0 0.0 0.0 0.00 0.00 0.00 51 1012.0
20260508162156 54 0 0.0 0.0 0.00 0.00 0.00 52 1012.0
20260508161155 54 0 0.0 0.0 0.00 0.00 0.00 50 1012.0
20260508160155 55 0 0.0 0.0 0.00 0.00 0.00 48 1012.0
20260508155155 55 0 0.0 0.0 0.00 0.00 0.00 48 1011.6
20260508154245 56 0 0.0 0.0 0.00 0.00 0.00 48 1011.6
20260508153155 56 0 0.0 0.0 0.00 0.00 0.00 47 1011.6
20260508152155 56 0 0.0 0.0 0.00 0.00 0.00 49 1011.3
20260508151155 56 0 0.0 0.0 0.00 0.00 0.00 48 1011.6
20260508150155 56 0 0.0 0.0 0.00 0.00 0.00 46 1011.6
20260508145155 56 0 0.0 0.0 0.00 0.00 0.00 48 1011.6
20260508144154 56 0 0.0 0.0 0.00 0.00 0.00 49 1011.6
20260508143155 56 0 0.0 0.0 0.00 0.00 0.00 49 1011.6
20260508142154 56 0 0.0 0.0 0.00 0.00 0.00 48 1012.0
20260508141154 56 0 0.0 0.0 0.00 0.00 0.00 48 1012.0
20260508140154 56 0 0.0 0.0 0.00 0.00 0.00 48 1012.0
20260508135154 58 0 0.0 0.0 0.00 0.00 0.00 46 1012.0
20260508134153 56 0 0.0 0.0 0.00 0.00 0.00 50 1012.0
20260508133153 55 0 0.0 0.0 0.00 0.00 0.00 46 1011.6
20260508132153 55 0 0.0 0.0 0.00 0.00 0.00 51 1012.0
20260508131153 55 0 0.0 0.0 0.00 0.00 0.00 53 1012.0
20260508130153 54 0 0.0 0.0 0.00 0.00 0.00 54 1012.0
20260508125244 54 0 0.0 0.0 0.00 0.00 0.00 59 1012.0
20260508124153 54 0 0.0 0.0 0.00 0.00 0.00 61 1012.3
20260508123152 52 0 0.0 0.0 0.00 0.00 0.00 61 1012.3
20260508122152 52 0 0.0 0.0 0.00 0.00 0.00 61 1012.3
20260508121152 51 0 0.0 0.0 0.00 0.00 0.00 65 1012.7
20260508120152 50 0 0.0 0.0 0.00 0.00 0.00 66 1012.7
20260508115152 49 0 0.0 0.0 0.00 0.00 0.00 67 1012.7
20260508114152 49 0 0.0 0.0 0.00 0.00 0.00 67 1012.7
20260508113152 48 0 0.0 0.0 0.00 0.00 0.00 68 1012.7
20260508112153 48 0 0.0 0.0 0.00 0.00 0.00 70 1012.7
20260508111212 47 0 0.0 0.0 0.00 0.00 0.00 73 1012.3
20260508110152 45 0 0.0 0.0 0.00 0.00 0.00 73 1012.3
20260508105152 45 0 0.0 0.0 0.00 0.00 0.00 72 1012.3
20260508104151 45 0 0.0 0.0 0.00 0.00 0.00 72 1012.0
20260508103151 45 0 0.0 0.0 0.00 0.00 0.00 72 1012.3
20260508102211 45 0 0.0 0.0 0.00 0.00 0.00 74 1012.0
20260508101151 44 0 0.0 0.0 0.00 0.00 0.00 74 1012.0
20260508100151 43 0 0.0 0.0 0.00 0.00 0.00 75 1011.6
20260508095150 42 0 0.0 0.0 0.00 0.00 0.00 76 1011.6
20260508094150 42 0 0.0 0.0 0.00 0.00 0.00 75 1011.6
20260508093150 42 0 0.0 0.0 0.00 0.00 0.00 77 1011.3
20260508092150 42 0 0.0 0.0 0.00 0.00 0.00 74 1011.3
20260508091151 42 0 0.0 0.0 0.00 0.00 0.00 74 1011.6
20260508090149 42 0 0.0 0.0 0.00 0.00 0.00 74 1011.3
20260508085150 43 0 0.0 0.0 0.00 0.00 0.00 71 1011.3
20260508084149 44 0 0.0 0.0 0.00 0.00 0.00 71 1011.3
20260508083150 44 0 0.0 0.0 0.00 0.00 0.00 71 1011.3
20260508082150 45 0 0.0 0.0 0.00 0.00 0.00 69 1011.3
20260508081149 46 0 0.0 0.0 0.00 0.00 0.00 68 1011.3